Tracking 19476 objects as of 17-Jan-2019
HD Live streaming from Space Station
objects crossing your sky now

EXPRESS AM-11

Track EXPRESS AM-11 now!
EXPRESS AM-11 is classified as:


NORAD ID: 28234
Int'l Code: 2004-015A
Perigee: 36,032.9 km
Apogee: 36,138.4 km
Inclination: 9.6 °
Period: 1,451.0 minutes
Semi major axis: 42456 km
RCS: 12.5893 m2 (large)
Launch date: April 26, 2004
Source: Commonwealth of Independent States (former USSR) (CIS)
Launch site: TYURATAM MISSILE AND SPACE COMPLEX (TTMTR)

26 C-band, 4 Ku-band; digital television, broadband internet links and telephone to Russia and its neighbors.
aabbcc
Your satellite tracking list
Your tracking list is empty




NASA's NSSDC Master Catalog

Two Line Element Set (TLE):
1 28234U 04015A   19015.89786184 -.00000232 +00000-0 +00000-0 0  9994
2 28234 009.6138 040.9515 0012418 256.0295 124.9531 00.99239455053534
Source of the keplerian elements: AFSPC